Regional Weather Roundup
Issued by NWS Kansas City/Pleasant Hill, MO

Home | Current Version | Previous Version | Text Only | Print | Product List | Glossary On
Versions: 1 2 3 4 5 6 7 8 9 10 11 12 13 14 15 16 17 18 19 20 21 22 23 24 25 26 27 28 29 30 31 32 33 34 35 36 37 38 39 40 41 42 43 44 45 46 47 48 49 50
511
ASUS43 KEAX 260010
RWREAX

WEATHER ROUNDUP FOR EASTERN KANSAS AND NORTHWEST MISSOURI
NATIONAL WEATHER SERVICE KANSAS CITY/PLEASANT HILL MO
700 PM CDT MON JUL 25 2016

KSZ040-057-103>105-MOZ028-029-037-043-260100-
...KANSAS CITY METROPOLITAN AREA...

CITY           SKY/WX    TMP DP  RH WIND       PRES   REMARKS
K.C. INTL      PTSUNNY   83  66  56 NE7       30.03R
6HR MIN TEMP:  79; 6HR MAX TEMP:  86;

K.C. DOWNTOWN  PTSUNNY   85  64  49 E10       30.01R
6HR MIN TEMP:  80; 6HR MAX TEMP:  89;

LEES SUMMIT    PTSUNNY   81  69  67 E6        30.03S
6HR MIN TEMP:  76; 6HR MAX TEMP:  85;

OLATHE - IXD   MOSUNNY   85  70  60 NE3       30.03S
6HR MIN TEMP:  77; 6HR MAX TEMP:  85;

OLATHE - OJC   MOSUNNY   83  69  62 E7        30.03S
6HR MIN TEMP:  76; 6HR MAX TEMP:  85;

LAWRENCE       MOSUNNY   82  71  69 N5        30.02S

$$

MOZ001>008-011>017-020>025-030>033-038>040-044>046-053-054-260100-
...NORTHERN AND CENTRAL MISSOURI...

CITY           SKY/WX    TMP DP  RH WIND       PRES   REMARKS
ST. JOSEPH     PTSUNNY   84  67  56 NE6       30.02S
6HR MIN TEMP:  81; 6HR MAX TEMP:  88;

MOSBY          CLEAR     82  64  54 NE3       30.02S
WHITEMAN AFB   PTSUNNY   82  74  77 E5        30.02R
6HR MIN TEMP:  77; 6HR MAX TEMP:  84;

CLINTON        PTSUNNY   81  75  83 NE5       30.02R
SEDALIA        MOSUNNY   81  72  74 CALM      30.03R
6HR MIN TEMP:  78; 6HR MAX TEMP:  85;

WARSAW         NOT AVBL
CHILLICOTHE      N/A     86  69  56 NE5       30.02S HX  90
6HR MIN TEMP:  83; 6HR MAX TEMP:  89;

KIRKSVILLE     CLOUDY    82  67  60 NE7       30.04R
6HR MIN TEMP:  82; 6HR MAX TEMP:  87;


$$

MOZ041-047>049-056>058-063>065-088>090-097-260100-
...EASTERN AND SOUTHERN MISSOURI...

CITY           SKY/WX    TMP DP  RH WIND       PRES   REMARKS
ST. LOUIS INTL PTSUNNY   85  74  69 N13       29.98R HX  92
6HR MIN TEMP:  83; 6HR MAX TEMP:  90;

SPIRIT OF STL  PTSUNNY   84  75  74 N9        29.96S HX  92
COLUMBIA       SUNNY     81  72  74 NE7       30.01S
JEFFERSON CITY SUNNY     83  72  69 E6        29.99S
ROLLA          MOSUNNY   81  72  74 NE7       30.00R
OSAGE BEACH    PTSUNNY   81  74  79 NE8       30.02R
SPRINGFIELD    MOSUNNY   84  71  65 NE8       30.01R
BRANSON        PTSUNNY   82  73  74 NE3       30.01R
JOPLIN         CLOUDY    83  74  74 N8        30.00S
WEST PLAINS    MOSUNNY   84  72  67 NE12      30.00S

$$

IAZ060-094-KSZ022-034>040-054-083-096-NEZ052-066-093-260100-
...KANSAS...SOUTHEAST NEBRASKA AND IOWA...

CITY           SKY/WX    TMP DP  RH WIND       PRES   REMARKS
TOPEKA         MOSUNNY   82  68  62 NE5       30.02F
6HR MIN TEMP:  76; 6HR MAX TEMP:  85;

MANHATTAN      CLOUDY    84  68  58 E7        30.02S
EMPORIA        CLOUDY    80  71  74 NE12      30.03S
CHANUTE        CLOUDY    82  72  71 NE10      30.01R
WICHITA        CLOUDY    83  71  67 NE15      30.01S
OMAHA          MOSUNNY   86  65  49 E7        30.03F
LINCOLN        SUNNY     86  63  45 E9        30.05S
FALLS CITY     SUNNY     84  68  58 NE7       30.03S
LAMONI         SUNNY     83  68  60 NE7       30.04R
DES MOINES     MOSUNNY   86  60  41 NE15      30.03R

$$





USA.gov is the U.S. government's official web portal to all federal, state and local government web resources and services.